Dati Storici

Data ora Umidita' aria (%) Temperatura aria (°C) Rad globale (W/m²) Gonioanemometro (°) Tacoanemometro (m/s) Pioggia (mm)
22-06-2020 20:10 39.8 % 27.706 146.567 -0.041 0 0
22-06-2020 20:00 37.3 % 27.985 59.566 -0.044 0 0
22-06-2020 19:50 36.1 % 28.899 27.646 -0.043 0 0
22-06-2020 19:40 33.9 % 29.178 145.551 0.897 0 0
22-06-2020 19:30 31.7 % 29.173 160.714 0.81 0 0
22-06-2020 19:20 30.5 % 29.267 110.735 2.028 0 0
22-06-2020 19:10 28.5 % 29.689 219.071 1.069 0 0
22-06-2020 19:00 32.4 % 29.564 113.49 0.323 0 0
22-06-2020 18:50 31.8 % 29.451 73.637 0.541 0 0
22-06-2020 18:40 32.4 % 29.681 97.911 1.469 0 0
22-06-2020 18:30 32.7 % 29.615 198.247 1.115 0 0
22-06-2020 18:20 32.5 % 30.221 125.183 2.076 0 0
22-06-2020 18:10 31 % 30.914 165.447 0.668 0 0
22-06-2020 18:00 32.5 % 30.566 207.045 1.127 0 0
22-06-2020 17:50 31.9 % 30.644 126.753 0.831 0 0
22-06-2020 17:40 32.1 % 30.418 157.297 2.22 0 0
22-06-2020 17:30 29.6 % 30.808 109.887 1.519 0 0
22-06-2020 17:20 31.1 % 30.916 118.274 0.588 0 0
22-06-2020 17:10 30 % 31.045 125.665 1.976 0 0
22-06-2020 17:00 30.3 % 31.216 150.868 1.242 0 0

I dati sono presentati in modo automatico a scopo informativo. In seguito a verifica i dati possono subire modifiche o essere invalidati e non riportati negli archivi definitivi.